Weather in Cambridge

United Kingdom     52°12′19″N   0°07′18″E
temp.,
°C
wind,
m/s
gust,
m/s
humid.,
%
clouds,
%
prec.,
mm/h
press.,
hPa
HPBL,
m
14 april, wed
wed1401:00+1sse228118 0.0 103313
04:00+2ene227297 0.0 103319
07:00+3ene236655 0.0 1033113
10:00+7ne34616 0.0 1034962
13:00+8nne4554100 0.1 10341417
16:00+9nne664937 0.0 10331762
19:00+6nne47642 0.0 1033271
22:00+1ne35850 0.0 103471
15 april, thu
thu1501:000nne22915 0.0 103514
04:00−1nnw22948 0.0 103431
07:000n35937 0.0 1035129
10:00+7nne566851 0.0 10341050
13:00+8nne5662100 0.2 10331264
16:00+8ne6766100 0.8 10321224
19:00+6nne59775 1.3 1032422
22:00+1ne36875 0.0 1033105
16 april, fri
fri1601:000ne34935 0.0 103356
04:00−1nne33940 0.0 103333
07:000nne23922 0.0 103381
10:00+7ne45580 0.0 1033890
13:00+10ne44465 0.0 10321726
16:00+11ne444764 0.0 10301810
19:00+7nne47685 0.0 1031196
22:00+2ene33830 0.0 103240
17 april, sat
sat1701:000ene11890 0.0 103110
04:000n11900 0.0 103110
07:00+1n12870 0.0 103035
10:00+7nne22621 0.0 1030590
13:00+11ene11505 0.0 10291148
16:00+12nnw004829 0.0 10271372
19:00+9wnw1163100 0.0 102711
22:00+4sse358497 0.0 102881
18 april, sun
sun1801:00+3sse3680100 0.0 102799
04:00+4ssw3477100 0.0 102674
07:00+5ssw2478100 0.0 1026111
10:00+9ssw3469100 0.0 1026454
13:00+11ssw3464100 0.0 1025962
16:00+12ssw246199 0.1 10241166
19:00+10nw0175100 0.1 102417
22:00+8sse4872100 0.0 1024206